OCN6NH EDDF-LEPA

Flight info

Callsign OCN6NH
Flight time 1h 52m
Altitude 35000
Route ANEKI2L/18 ANEKI Y163 HERBI Y164 MOPAN DCT LUTIX DCT BENOT DCT NEMOS DCT GEVEA DCT INCUS/N0446F370 DCT BALSI DCT RETNO DCT TUPOX DCT MTG DCT DIVKO DCT VATIR DCT PIVUS N852 VERSO L129 LUNIK
Aircraft A320/M-SDE3FGHIRWY/LB1

Departure

Time 2026-05-04 15:09
Airport Frankfurt Main Airport (EDDF)

Arrival

Time 2026-05-04 17:01
Airport Palma de Mallorca Airport (LEPA)
Time Latitude Longitude Altitude Speed Heading
2026-05-04 14:40 50.03946 8.55116 353 ft 0 kts 160°
2026-05-04 15:03 50.03936 8.55122 358 ft 3 kts 160°
2026-05-04 15:03 50.03917 8.55133 355 ft 3 kts 160°
2026-05-04 15:03 50.03887 8.55150 354 ft 7 kts 162°
2026-05-04 15:04 50.03836 8.55055 357 ft 16 kts 248°
2026-05-04 15:04 50.03791 8.54875 354 ft 19 kts 249°
2026-05-04 15:04 50.03742 8.54674 350 ft 21 kts 250°
2026-05-04 15:04 50.03690 8.54453 350 ft 23 kts 248°
2026-05-04 15:05 50.03632 8.54208 345 ft 25 kts 250°
2026-05-04 15:05 50.03570 8.53955 337 ft 25 kts 250°
2026-05-04 15:05 50.03512 8.53702 337 ft 25 kts 248°
2026-05-04 15:05 50.03448 8.53445 335 ft 26 kts 249°
2026-05-04 15:06 50.03383 8.53185 334 ft 26 kts 251°
2026-05-04 15:06 50.03324 8.52919 333 ft 26 kts 248°
2026-05-04 15:06 50.03266 8.52660 335 ft 24 kts 266°
2026-05-04 15:07 50.03212 8.52596 334 ft 0 kts 176°
2026-05-04 15:08 50.03123 8.52597 335 ft 43 kts 179°
2026-05-04 15:08 50.02587 8.52599 334 ft 108 kts 180°
2026-05-04 15:08 50.01663 8.52610 332 ft 156 kts 179°
2026-05-04 15:09 50.00472 8.52624 591 ft 177 kts 180°
2026-05-04 15:09 49.99231 8.52699 1245 ft 180 kts 181°
2026-05-04 15:09 49.97954 8.52793 1703 ft 193 kts 180°
2026-05-04 15:10 49.95001 8.52985 2367 ft 228 kts 180°
2026-05-04 15:10 49.93372 8.53091 2981 ft 239 kts 180°
2026-05-04 15:10 49.89755 8.53329 4219 ft 266 kts 180°
2026-05-04 15:11 49.87943 8.53455 5123 ft 267 kts 178°
2026-05-04 15:11 49.86103 8.53585 6143 ft 263 kts 178°
2026-05-04 15:11 49.84267 8.53717 6986 ft 265 kts 178°
2026-05-04 15:11 49.82436 8.53853 7925 ft 262 kts 178°
2026-05-04 15:12 49.80576 8.53982 8709 ft 266 kts 179°
2026-05-04 15:12 49.78718 8.54098 9555 ft 268 kts 179°
2026-05-04 15:12 49.76852 8.54031 10307 ft 270 kts 185°
2026-05-04 15:12 49.74931 8.53800 10713 ft 287 kts 186°
2026-05-04 15:13 49.72871 8.53514 10959 ft 308 kts 186°
2026-05-04 15:13 49.70702 8.53190 11183 ft 327 kts 186°
2026-05-04 15:13 49.68340 8.52844 11428 ft 345 kts 186°
2026-05-04 15:13 49.65921 8.52501 11968 ft 351 kts 186°
2026-05-04 15:14 49.64202 8.52272 12380 ft 355 kts 186°
2026-05-04 15:14 49.61812 8.51960 12970 ft 360 kts 186°
2026-05-04 15:14 49.59308 8.51638 13582 ft 364 kts 186°
2026-05-04 15:14 49.56721 8.51308 14151 ft 369 kts 186°
2026-05-04 15:15 49.54160 8.50978 14708 ft 372 kts 186°
2026-05-04 15:15 49.51543 8.50635 15266 ft 375 kts 187°
2026-05-04 15:15 49.48935 8.50291 15811 ft 378 kts 187°
2026-05-04 15:16 49.43654 8.49599 16918 ft 384 kts 187°
2026-05-04 15:16 49.40976 8.49249 17475 ft 387 kts 187°
2026-05-04 15:16 49.35568 8.48544 18604 ft 394 kts 187°
2026-05-04 15:17 49.32824 8.48185 19105 ft 396 kts 187°
2026-05-04 15:17 49.27296 8.47460 20017 ft 401 kts 187°
2026-05-04 15:17 49.24510 8.47095 20453 ft 403 kts 187°
2026-05-04 15:18 49.21706 8.46729 20888 ft 405 kts 187°
2026-05-04 15:18 49.18892 8.46365 21285 ft 408 kts 187°
2026-05-04 15:18 49.16049 8.45999 21693 ft 411 kts 187°
2026-05-04 15:19 49.10307 8.45265 22499 ft 415 kts 187°
2026-05-04 15:19 49.07429 8.44890 22887 ft 417 kts 187°
2026-05-04 15:19 49.01727 8.43146 23620 ft 420 kts 194°
2026-05-04 15:20 48.98872 8.42142 23950 ft 422 kts 194°
2026-05-04 15:20 48.96015 8.41143 24289 ft 423 kts 194°
2026-05-04 15:20 48.93138 8.40140 24639 ft 424 kts 194°
2026-05-04 15:20 48.90196 8.39115 24991 ft 425 kts 194°
2026-05-04 15:21 48.87397 8.38144 25304 ft 426 kts 194°
2026-05-04 15:21 48.84502 8.37142 25626 ft 427 kts 194°
2026-05-04 15:21 48.78674 8.35138 26246 ft 430 kts 194°
2026-05-04 15:22 48.75765 8.34117 26548 ft 431 kts 194°
2026-05-04 15:22 48.72861 8.32985 26850 ft 430 kts 200°
2026-05-04 15:22 48.67315 8.29540 27415 ft 432 kts 203°
2026-05-04 15:23 48.64535 8.27788 27725 ft 432 kts 203°
2026-05-04 15:23 48.61772 8.26049 28122 ft 431 kts 203°
2026-05-04 15:23 48.59005 8.24309 28515 ft 429 kts 203°
2026-05-04 15:23 48.56248 8.22573 28929 ft 428 kts 203°
2026-05-04 15:24 48.50779 8.19131 29782 ft 424 kts 203°
2026-05-04 15:24 48.45344 8.15723 30504 ft 422 kts 203°
2026-05-04 15:25 48.42642 8.14025 30800 ft 421 kts 203°
2026-05-04 15:25 48.39941 8.12332 31121 ft 420 kts 203°
2026-05-04 15:25 48.37208 8.10622 31440 ft 419 kts 203°
2026-05-04 15:26 48.31866 8.07282 32095 ft 417 kts 204°
2026-05-04 15:26 48.29189 8.05610 32417 ft 416 kts 204°
2026-05-04 15:26 48.23818 8.02257 33038 ft 414 kts 204°
2026-05-04 15:27 48.21193 8.00624 33332 ft 414 kts 204°
2026-05-04 15:27 48.15876 7.97338 33935 ft 413 kts 204°
2026-05-04 15:28 48.10569 7.94066 34445 ft 412 kts 204°
2026-05-04 15:28 48.07919 7.92431 34682 ft 412 kts 204°
2026-05-04 15:28 48.02630 7.89158 35136 ft 412 kts 204°
2026-05-04 15:29 47.99975 7.87519 35358 ft 412 kts 204°
2026-05-04 15:30 47.89356 7.81005 36140 ft 413 kts 204°
2026-05-04 15:30 47.81373 7.76132 36736 ft 413 kts 204°
2026-05-04 15:31 47.76049 7.72881 37005 ft 416 kts 204°
2026-05-04 15:31 47.73366 7.71240 37015 ft 417 kts 204°
2026-05-04 15:32 47.59931 7.63093 37030 ft 418 kts 204°
2026-05-04 15:34 47.46454 7.54967 37017 ft 418 kts 204°
2026-05-04 15:34 47.38353 7.50106 37012 ft 418 kts 204°
2026-05-04 15:35 47.30299 7.45280 37062 ft 417 kts 204°
2026-05-04 15:36 47.22427 7.39807 37068 ft 415 kts 211°
2026-05-04 15:36 47.17438 7.35545 37067 ft 415 kts 211°
2026-05-04 15:37 47.12444 7.31300 37066 ft 415 kts 212°
2026-05-04 15:37 47.07450 7.27049 37038 ft 415 kts 212°
2026-05-04 15:38 47.02459 7.22809 37048 ft 415 kts 211°
2026-05-04 15:38 46.97459 7.18592 37051 ft 415 kts 211°
2026-05-04 15:39 46.92457 7.14369 37059 ft 415 kts 212°
2026-05-04 15:40 46.84950 7.08051 37070 ft 415 kts 212°
2026-05-04 15:40 46.79944 7.03851 37073 ft 415 kts 212°
2026-05-04 15:41 46.74938 6.99654 37061 ft 415 kts 212°
2026-05-04 15:41 46.69923 6.95473 37070 ft 415 kts 212°
2026-05-04 15:42 46.64883 6.91273 37077 ft 415 kts 212°
2026-05-04 15:42 46.59871 6.87099 37100 ft 415 kts 212°
2026-05-04 15:43 46.54865 6.82939 37093 ft 414 kts 212°
2026-05-04 15:43 46.49857 6.78784 37091 ft 414 kts 212°
2026-05-04 15:44 46.44859 6.74654 37088 ft 413 kts 212°
2026-05-04 15:44 46.39892 6.70559 37089 ft 413 kts 212°
2026-05-04 15:45 46.34868 6.66426 37079 ft 413 kts 212°
2026-05-04 15:45 46.29876 6.62327 37077 ft 412 kts 212°
2026-05-04 15:46 46.25730 6.58929 37072 ft 412 kts 212°
2026-05-04 15:46 46.20741 6.54845 37073 ft 412 kts 212°
2026-05-04 15:47 46.15746 6.50775 37065 ft 412 kts 212°
2026-05-04 15:47 46.10756 6.46708 37073 ft 412 kts 212°
2026-05-04 15:48 46.05768 6.42649 37059 ft 411 kts 212°
2026-05-04 15:48 45.98291 6.36581 37051 ft 411 kts 212°
2026-05-04 15:49 45.93309 6.32552 37081 ft 411 kts 212°
2026-05-04 15:49 45.88327 6.28534 37076 ft 410 kts 212°
2026-05-04 15:50 45.83354 6.24528 37066 ft 411 kts 212°
2026-05-04 15:50 45.78374 6.20520 37060 ft 410 kts 212°
2026-05-04 15:51 45.73403 6.16522 37054 ft 410 kts 212°
2026-05-04 15:51 45.68420 6.12539 37059 ft 410 kts 212°
2026-05-04 15:52 45.63444 6.08578 37068 ft 409 kts 212°
2026-05-04 15:52 45.58477 6.04622 37060 ft 409 kts 212°
2026-05-04 15:53 45.53501 6.00665 37065 ft 409 kts 211°
2026-05-04 15:53 45.50846 5.99183 37063 ft 413 kts 200°
2026-05-04 15:53 45.48074 5.98061 37060 ft 414 kts 200°
2026-05-04 15:54 45.42551 5.95890 37055 ft 414 kts 199°
2026-05-04 15:54 45.36970 5.93716 37037 ft 413 kts 200°
2026-05-04 15:55 45.31422 5.91548 37035 ft 413 kts 200°
2026-05-04 15:55 45.25890 5.89376 37033 ft 414 kts 200°
2026-05-04 15:56 45.20383 5.87223 37027 ft 413 kts 199°
2026-05-04 15:56 45.14832 5.85067 37033 ft 413 kts 200°
2026-05-04 15:57 45.09289 5.82907 37017 ft 413 kts 200°
2026-05-04 15:57 45.03750 5.80744 37006 ft 413 kts 200°
2026-05-04 15:58 44.98214 5.78594 37024 ft 412 kts 200°
2026-05-04 15:58 44.92690 5.76463 37030 ft 411 kts 200°
2026-05-04 15:59 44.87179 5.74342 37029 ft 410 kts 200°
2026-05-04 15:59 44.81672 5.72214 37019 ft 410 kts 200°
2026-05-04 16:00 44.76171 5.70089 37051 ft 409 kts 200°
2026-05-04 16:00 44.70681 5.67985 37047 ft 409 kts 200°
2026-05-04 16:01 44.65371 5.65300 37041 ft 404 kts 205°
2026-05-04 16:01 44.60152 5.62352 37033 ft 404 kts 206°
2026-05-04 16:02 44.54941 5.59383 37030 ft 405 kts 206°
2026-05-04 16:03 44.47106 5.54970 37021 ft 404 kts 206°
2026-05-04 16:03 44.41878 5.52051 37029 ft 404 kts 206°
2026-05-04 16:04 44.36655 5.49127 37035 ft 404 kts 206°
2026-05-04 16:04 44.28829 5.44771 37018 ft 404 kts 206°
2026-05-04 16:05 44.23615 5.41867 37027 ft 403 kts 206°
2026-05-04 16:06 44.15797 5.37526 37040 ft 403 kts 206°
2026-05-04 16:07 44.05397 5.31772 37038 ft 402 kts 205°
2026-05-04 16:08 43.95008 5.26054 37026 ft 401 kts 205°
2026-05-04 16:09 43.82049 5.18954 37010 ft 400 kts 205°
2026-05-04 16:10 43.71724 5.13310 37008 ft 400 kts 205°
2026-05-04 16:11 43.61342 5.07652 37021 ft 399 kts 205°
2026-05-04 16:12 43.45841 4.99265 37009 ft 398 kts 206°
2026-05-04 16:13 43.35561 4.93717 37025 ft 398 kts 205°
2026-05-04 16:14 43.25221 4.88169 36992 ft 398 kts 206°
2026-05-04 16:16 43.12331 4.81274 36938 ft 397 kts 206°
2026-05-04 16:17 42.99925 4.73359 36954 ft 392 kts 213°
2026-05-04 16:18 42.90396 4.66153 36939 ft 391 kts 213°
2026-05-04 16:19 42.78505 4.57171 36965 ft 390 kts 212°
2026-05-04 16:20 42.66578 4.48214 36933 ft 393 kts 212°
2026-05-04 16:22 42.54620 4.39260 36921 ft 393 kts 212°
2026-05-04 16:23 42.40235 4.28577 36927 ft 392 kts 212°
2026-05-04 16:25 42.25864 4.17929 36946 ft 392 kts 212°
2026-05-04 16:26 42.09942 4.06204 36921 ft 391 kts 212°
2026-05-04 16:28 41.98053 3.97497 36926 ft 390 kts 212°
2026-05-04 16:28 41.90652 3.92971 36906 ft 399 kts 198°
2026-05-04 16:29 41.79706 3.90436 36923 ft 400 kts 196°
2026-05-04 16:31 41.66022 3.87280 36924 ft 399 kts 196°
2026-05-04 16:32 41.49638 3.83526 36904 ft 398 kts 196°
2026-05-04 16:33 41.38730 3.81021 36926 ft 398 kts 196°
2026-05-04 16:34 41.30535 3.79163 36925 ft 398 kts 195°
2026-05-04 16:35 41.22324 3.77288 35806 ft 398 kts 195°
2026-05-04 16:35 41.14206 3.75133 34477 ft 392 kts 204°
2026-05-04 16:36 41.11669 3.73817 34053 ft 391 kts 205°
2026-05-04 16:36 41.06590 3.71185 33071 ft 393 kts 205°
2026-05-04 16:37 41.01478 3.68559 32134 ft 396 kts 205°
2026-05-04 16:37 40.98897 3.67236 31669 ft 397 kts 205°
2026-05-04 16:37 40.93716 3.64583 30748 ft 401 kts 205°
2026-05-04 16:38 40.88480 3.61896 29751 ft 406 kts 205°
2026-05-04 16:39 40.80526 3.57814 28091 ft 410 kts 205°
2026-05-04 16:39 40.75180 3.55084 27043 ft 414 kts 205°
2026-05-04 16:40 40.69772 3.52333 26033 ft 419 kts 205°
2026-05-04 16:40 40.64347 3.49574 25064 ft 423 kts 205°
2026-05-04 16:41 40.58869 3.46795 24126 ft 421 kts 205°
2026-05-04 16:41 40.50750 3.42673 22621 ft 416 kts 205°
2026-05-04 16:42 40.42676 3.39461 21056 ft 400 kts 188°
2026-05-04 16:43 40.37171 3.39644 20120 ft 390 kts 182°
2026-05-04 16:43 40.31802 3.39958 19250 ft 383 kts 182°
2026-05-04 16:43 40.29211 3.40098 18838 ft 381 kts 182°
2026-05-04 16:44 40.18988 3.40661 16975 ft 367 kts 181°
2026-05-04 16:45 40.14062 3.40951 16059 ft 341 kts 181°
2026-05-04 16:46 40.07316 3.41338 14595 ft 309 kts 181°
2026-05-04 16:46 40.03128 3.41571 13643 ft 295 kts 181°
2026-05-04 16:47 39.99035 3.41796 12955 ft 290 kts 181°
2026-05-04 16:47 39.95029 3.42019 12291 ft 287 kts 182°
2026-05-04 16:48 39.89147 3.42356 11296 ft 278 kts 182°
2026-05-04 16:48 39.87215 3.42466 10656 ft 278 kts 182°
2026-05-04 16:49 39.83381 3.42683 9450 ft 273 kts 182°
2026-05-04 16:49 39.79636 3.42885 8399 ft 260 kts 182°
2026-05-04 16:50 39.76179 3.43085 7924 ft 244 kts 182°
2026-05-04 16:50 39.72794 3.43045 7927 ft 240 kts 200°
2026-05-04 16:51 39.70339 3.40462 7938 ft 233 kts 244°
2026-05-04 16:51 39.69935 3.38419 7938 ft 237 kts 266°
2026-05-04 16:51 39.70079 3.34116 7932 ft 238 kts 269°
2026-05-04 16:52 39.70254 3.29780 7238 ft 240 kts 269°
2026-05-04 16:52 39.70340 3.27616 6876 ft 241 kts 269°
2026-05-04 16:53 39.70524 3.23288 6149 ft 240 kts 269°
2026-05-04 16:53 39.70783 3.16839 5088 ft 233 kts 269°
2026-05-04 16:54 39.70863 3.14802 4845 ft 226 kts 269°
2026-05-04 16:55 39.70128 3.07204 4467 ft 212 kts 238°
2026-05-04 16:55 39.68597 3.03942 4473 ft 210 kts 238°
2026-05-04 16:56 39.67170 3.00893 4289 ft 193 kts 237°
2026-05-04 16:56 39.65087 2.96452 3547 ft 189 kts 238°
2026-05-04 16:57 39.64419 2.95028 3324 ft 186 kts 238°
2026-05-04 16:57 39.63065 2.92145 2826 ft 187 kts 238°
2026-05-04 16:58 39.61047 2.87852 2111 ft 180 kts 238°
2026-05-04 16:58 39.60421 2.86522 1864 ft 166 kts 238°
2026-05-04 16:59 39.59328 2.84200 1457 ft 139 kts 237°
2026-05-04 17:00 39.57459 2.80227 825 ft 124 kts 236°
2026-05-04 17:00 39.56088 2.77318 296 ft 129 kts 236°
2026-05-04 17:01 39.55171 2.75377 39 ft 112 kts 237°
2026-05-04 17:01 39.54670 2.74326 36 ft 42 kts 238°
2026-05-04 17:02 39.54551 2.73778 38 ft 16 kts 271°
2026-05-04 17:02 39.54553 2.73730 38 ft 0 kts 280°
2026-05-04 17:03 39.54555 2.73721 38 ft 0 kts 281°
2026-05-04 17:04 39.54614 2.73620 38 ft 10 kts 317°
2026-05-04 17:05 39.54685 2.73506 38 ft 7 kts 325°
2026-05-04 17:05 39.54701 2.73493 37 ft 0 kts 330°
2026-05-04 17:06 39.54719 2.73442 38 ft 5 kts 228°
2026-05-04 17:06 39.54694 2.73389 38 ft 7 kts 240°
2026-05-04 17:07 39.54692 2.73383 38 ft 0 kts 240°
2026-05-04 17:08 39.54693 2.73386 38 ft 0 kts 239°